| time (UTC) | temp C | wind direction | speed KPH | gust KPH | rain 1hr cm | rain 24hr cm | rain mn cm | humidity % | barometer mb |
| 20260502190007 | 32 | 116 | 0.0 | 17.7 | 0.00 | 0.00 | 0.00 | 24 | 1010.9 |
| 20260502185501 | 32 | 104 | 6.4 | 17.7 | 0.00 | 0.00 | 0.00 | 22 | 1010.8 |
| 20260502185053 | 32 | 100 | 6.4 | 17.7 | 0.00 | 0.00 | 0.00 | 21 | 1010.9 |
| 20260502184609 | 32 | 124 | 4.8 | 20.9 | 0.00 | 0.00 | 0.00 | 20 | 1011.2 |
| 20260502184141 | 32 | 122 | 8.0 | 20.9 | 0.00 | 0.00 | 0.00 | 22 | 1011.1 |
| 20260502183504 | 32 | 110 | 3.2 | 17.7 | 0.00 | 0.00 | 0.00 | 23 | 1011.4 |
| 20260502183120 | 32 | 116 | 3.2 | 17.7 | 0.00 | 0.00 | 0.00 | 25 | 1011.3 |
| 20260502182544 | 31 | 103 | 8.0 | 20.9 | 0.00 | 0.00 | 0.00 | 23 | 1011.3 |
| 20260502182101 | 32 | 110 | 6.4 | 20.9 | 0.00 | 0.00 | 0.00 | 23 | 1011.7 |
| 20260502181527 | 31 | 75 | 4.8 | 17.7 | 0.00 | 0.00 | 0.00 | 26 | 1011.9 |
| 20260502181004 | 31 | 114 | 6.4 | 17.7 | 0.00 | 0.00 | 0.00 | 25 | 1012.0 |
| 20260502180539 | 31 | 138 | 6.4 | 16.1 | 0.00 | 0.00 | 0.00 | 26 | 1011.9 |
| 20260502180132 | 31 | 122 | 3.2 | 17.7 | 0.00 | 0.00 | 0.00 | 26 | 1012.0 |
| 20260502170509 | 29 | 148 | 4.8 | 16.1 | 0.00 | 0.00 | 0.00 | 30 | 1012.2 |
| 20260502164126 | 28 | 103 | 4.8 | 19.3 | 0.00 | 0.00 | 0.00 | 29 | 1012.5 |
| 20260502163620 | 28 | 108 | 4.8 | 20.9 | 0.00 | 0.00 | 0.00 | 30 | 1012.5 |
| 20260502163036 | 28 | 80 | 4.8 | 17.7 | 0.00 | 0.00 | 0.00 | 30 | 1012.6 |
| 20260502162510 | 28 | 91 | 6.4 | 17.7 | 0.00 | 0.00 | 0.00 | 30 | 1012.6 |
| 20260502162008 | 28 | 86 | 6.4 | 22.5 | 0.00 | 0.00 | 0.00 | 29 | 1012.5 |
| 20260502161523 | 28 | 63 | 0.0 | 22.5 | 0.00 | 0.00 | 0.00 | 30 | 1012.4 |
| 20260502161053 | 28 | 79 | 0.0 | 14.5 | 0.00 | 0.00 | 0.00 | 29 | 1012.5 |
| 20260502160612 | 28 | 94 | 0.0 | 22.5 | 0.00 | 0.00 | 0.00 | 30 | 1012.4 |
| 20260502160129 | 27 | 91 | 3.2 | 22.5 | 0.00 | 0.00 | 0.00 | 30 | 1012.4 |
| 20260502152004 | 26 | 57 | 0.0 | 1.6 | 0.00 | 0.00 | 0.00 | 26 | 1012.1 |
| 20260502151654 | 25 | 57 | 0.0 | 0.0 | 0.00 | 0.00 | 0.00 | 26 | 1012.1 |
| 20260502151109 | 25 | 56 | 0.0 | 0.0 | 0.00 | 0.00 | 0.00 | 26 | 1012.1 |
| 20260502150510 | 25 | 53 | 0.0 | 0.0 | 0.00 | 0.00 | 0.00 | 25 | 1012.1 |
| 20260502130552 | 17 | 360 | 0.0 | 0.0 | 0.00 | 0.00 | 0.00 | 39 | 1010.7 |
| 20260502123504 | 17 | 360 | 0.0 | 0.0 | 0.00 | 0.00 | 0.00 | 39 | 1010.2 |
| 20260502123038 | 17 | 360 | 0.0 | 0.0 | 0.00 | 0.00 | 0.00 | 39 | 1010.1 |
| 20260502122632 | 17 | 360 | 0.0 | 0.0 | 0.00 | 0.00 | 0.00 | 38 | 1010.0 |
| 20260502122113 | 17 | 360 | 0.0 | 0.0 | 0.00 | 0.00 | 0.00 | 37 | 1010.0 |
| 20260502121611 | 17 | 360 | 0.0 | 0.0 | 0.00 | 0.00 | 0.00 | 37 | 1010.0 |
| 20260502121111 | 17 | 360 | 0.0 | 0.0 | 0.00 | 0.00 | 0.00 | 38 | 1009.9 |
| 20260502120532 | 17 | 360 | 0.0 | 0.0 | 0.00 | 0.00 | 0.00 | 37 | 1009.9 |
| 20260502120142 | 17 | 360 | 0.0 | 0.0 | 0.00 | 0.00 | 0.00 | 37 | 1009.9 |
| 20260502115508 | 17 | 360 | 0.0 | 0.0 | 0.00 | 0.00 | 0.00 | 37 | 1009.9 |
| 20260502115045 | 17 | 360 | 0.0 | 0.0 | 0.00 | 0.00 | 0.00 | 37 | 1009.9 |
| 20260502114505 | 18 | 360 | 0.0 | 0.0 | 0.00 | 0.00 | 0.00 | 36 | 1009.9 |
| 20260502114058 | 18 | 360 | 0.0 | 0.0 | 0.00 | 0.00 | 0.00 | 36 | 1009.8 |
| 20260502113554 | 18 | 360 | 0.0 | 0.0 | 0.00 | 0.00 | 0.00 | 36 | 1009.8 |
| 20260502113046 | 18 | 360 | 0.0 | 0.0 | 0.00 | 0.00 | 0.00 | 35 | 1009.8 |
| 20260502112627 | 18 | 360 | 0.0 | 0.0 | 0.00 | 0.00 | 0.00 | 35 | 1009.7 |
| 20260502112009 | 18 | 360 | 0.0 | 0.0 | 0.00 | 0.00 | 0.00 | 36 | 1009.7 |
| 20260502111603 | 18 | 360 | 0.0 | 0.0 | 0.00 | 0.00 | 0.00 | 36 | 1009.5 |
| 20260502111014 | 18 | 360 | 0.0 | 0.0 | 0.00 | 0.00 | 0.00 | 36 | 1009.5 |
| 20260502110551 | 18 | 360 | 0.0 | 0.0 | 0.00 | 0.00 | 0.00 | 35 | 1009.6 |
| 20260502110145 | 18 | 360 | 0.0 | 0.0 | 0.00 | 0.00 | 0.00 | 35 | 1009.5 |
| 20260502105619 | 18 | 360 | 0.0 | 0.0 | 0.00 | 0.00 | 0.00 | 36 | 1009.5 |
| 20260502105036 | 18 | 360 | 0.0 | 0.0 | 0.00 | 0.00 | 0.00 | 36 | 1009.6 |
| 20260502104626 | 18 | 360 | 0.0 | 0.0 | 0.00 | 0.00 | 0.00 | 36 | 1009.5 |
| 20260502104052 | 19 | 360 | 0.0 | 0.0 | 0.00 | 0.00 | 0.00 | 36 | 1009.6 |
| 20260502103518 | 18 | 360 | 0.0 | 0.0 | 0.00 | 0.00 | 0.00 | 36 | 1009.8 |
| 20260502103116 | 18 | 360 | 0.0 | 0.0 | 0.00 | 0.00 | 0.00 | 35 | 1009.7 |
| 20260502102514 | 18 | 360 | 0.0 | 0.0 | 0.00 | 0.00 | 0.00 | 35 | 1009.7 |
| 20260502102108 | 18 | 360 | 0.0 | 0.0 | 0.00 | 0.00 | 0.00 | 35 | 1009.7 |
| 20260502101602 | 18 | 360 | 0.0 | 0.0 | 0.00 | 0.00 | 0.00 | 35 | 1009.6 |
| 20260502101004 | 19 | 58 | 0.0 | 0.0 | 0.00 | 0.00 | 0.00 | 35 | 1009.5 |
| 20260502100536 | 19 | 57 | 0.0 | 0.0 | 0.00 | 0.00 | 0.00 | 34 | 1009.5 |
| 20260502091524 | 20 | 56 | 0.0 | 0.0 | 0.00 | 0.00 | 0.00 | 29 | 1009.1 |
| 20260502091059 | 20 | 56 | 0.0 | 0.0 | 0.00 | 0.00 | 0.00 | 28 | 1009.0 |
| 20260502090557 | 21 | 56 | 0.0 | 0.0 | 0.00 | 0.00 | 0.00 | 28 | 1009.0 |
| 20260502090111 | 21 | 56 | 0.0 | 0.0 | 0.00 | 0.00 | 0.00 | 29 | 1009.0 |
| 20260502080107 | 23 | 256 | 0.0 | 0.0 | 0.00 | 0.00 | 0.00 | 23 | 1008.5 |
| 20260502071114 | 23 | 256 | 0.0 | 0.0 | 0.00 | 0.00 | 0.00 | 24 | 1008.0 |
| 20260502070528 | 22 | 256 | 0.0 | 0.0 | 0.00 | 0.00 | 0.00 | 25 | 1008.0 |
| 20260502070126 | 22 | 256 | 0.0 | 0.0 | 0.00 | 0.00 | 0.00 | 24 | 1007.9 |
| 20260502065521 | 23 | 256 | 0.0 | 0.0 | 0.00 | 0.00 | 0.00 | 24 | 1008.0 |
| 20260502065114 | 23 | 256 | 0.0 | 0.0 | 0.00 | 0.00 | 0.00 | 24 | 1008.0 |
| 20260502064609 | 23 | 256 | 0.0 | 0.0 | 0.00 | 0.00 | 0.00 | 24 | 1008.2 |
| 20260502064009 | 23 | 256 | 0.0 | 0.0 | 0.00 | 0.00 | 0.00 | 24 | 1008.2 |
| 20260502063700 | 23 | 256 | 0.0 | 0.0 | 0.00 | 0.00 | 0.00 | 24 | 1008.2 |
| 20260502063004 | 23 | 256 | 0.0 | 0.0 | 0.00 | 0.00 | 0.00 | 23 | 1008.1 |
| 20260502062538 | 23 | 256 | 0.0 | 0.0 | 0.00 | 0.00 | 0.00 | 24 | 1008.1 |
| 20260502062119 | 23 | 256 | 0.0 | 0.0 | 0.00 | 0.00 | 0.00 | 25 | 1008.1 |
| 20260502061614 | 23 | 256 | 0.0 | 0.0 | 0.00 | 0.00 | 0.00 | 26 | 1008.1 |
| 20260502061047 | 23 | 256 | 0.0 | 0.0 | 0.00 | 0.00 | 0.00 | 26 | 1008.0 |
| 20260502060546 | 23 | 256 | 0.0 | 0.0 | 0.00 | 0.00 | 0.00 | 26 | 1008.1 |
| 20260502060142 | 23 | 256 | 0.0 | 0.0 | 0.00 | 0.00 | 0.00 | 27 | 1008.0 |
| 20260502055518 | 23 | 256 | 0.0 | 0.0 | 0.00 | 0.00 | 0.00 | 27 | 1007.9 |
| 20260502055113 | 22 | 256 | 0.0 | 0.0 | 0.00 | 0.00 | 0.00 | 27 | 1007.8 |
| 20260502054531 | 22 | 256 | 0.0 | 0.0 | 0.00 | 0.00 | 0.00 | 28 | 1007.9 |
| 20260502054014 | 23 | 256 | 0.0 | 0.0 | 0.00 | 0.00 | 0.00 | 27 | 1007.8 |
| 20260502053549 | 23 | 256 | 0.0 | 0.0 | 0.00 | 0.00 | 0.00 | 27 | 1007.7 |
| 20260502053122 | 23 | 256 | 0.0 | 0.0 | 0.00 | 0.00 | 0.00 | 28 | 1007.7 |
| 20260502052503 | 23 | 256 | 0.0 | 0.0 | 0.00 | 0.00 | 0.00 | 27 | 1007.8 |
| 20260502052035 | 23 | 256 | 0.0 | 0.0 | 0.00 | 0.00 | 0.00 | 27 | 1007.8 |
| 20260502051551 | 23 | 256 | 0.0 | 0.0 | 0.00 | 0.00 | 0.00 | 26 | 1007.7 |
| 20260502051010 | 23 | 256 | 0.0 | 0.0 | 0.00 | 0.00 | 0.00 | 26 | 1007.7 |
| 20260502050504 | 24 | 256 | 0.0 | 0.0 | 0.00 | 0.00 | 0.00 | 25 | 1007.6 |
| 20260502050155 | 24 | 256 | 0.0 | 0.0 | 0.00 | 0.00 | 0.00 | 25 | 1007.5 |
| 20260502045634 | 24 | 256 | 0.0 | 0.0 | 0.00 | 0.00 | 0.00 | 25 | 1007.3 |
| 20260502045050 | 24 | 256 | 0.0 | 0.0 | 0.00 | 0.00 | 0.00 | 25 | 1007.2 |
| 20260502044606 | 25 | 256 | 0.0 | 0.0 | 0.00 | 0.00 | 0.00 | 25 | 1007.2 |
| 20260502044007 | 25 | 256 | 0.0 | 0.0 | 0.00 | 0.00 | 0.00 | 24 | 1007.2 |
| 20260502043502 | 25 | 256 | 0.0 | 0.0 | 0.00 | 0.00 | 0.00 | 23 | 1007.2 |
| 20260502043059 | 25 | 256 | 0.0 | 0.0 | 0.00 | 0.00 | 0.00 | 24 | 1007.2 |
| 20260502042630 | 25 | 256 | 0.0 | 0.0 | 0.00 | 0.00 | 0.00 | 25 | 1007.2 |
| 20260502042014 | 25 | 256 | 0.0 | 0.0 | 0.00 | 0.00 | 0.00 | 24 | 1007.1 |
| 20260502041508 | 26 | 256 | 0.0 | 0.0 | 0.00 | 0.00 | 0.00 | 24 | 1007.3 |
| 20260502041003 | 26 | 256 | 0.0 | 0.0 | 0.00 | 0.00 | 0.00 | 24 | 1007.2 |
| 20260502040554 | 26 | 256 | 0.0 | 0.0 | 0.00 | 0.00 | 0.00 | 22 | 1007.3 |
| 20260502040004 | 26 | 256 | 0.0 | 0.0 | 0.00 | 0.00 | 0.00 | 22 | 1007.1 |
| 20260502035556 | 26 | 256 | 0.0 | 0.0 | 0.00 | 0.00 | 0.00 | 20 | 1007.1 |
| 20260502035016 | 26 | 256 | 0.0 | 0.0 | 0.00 | 0.00 | 0.00 | 19 | 1007.2 |
| 20260502034547 | 27 | 256 | 0.0 | 0.0 | 0.00 | 0.00 | 0.00 | 19 | 1007.1 |
| 20260502034044 | 27 | 256 | 0.0 | 0.0 | 0.00 | 0.00 | 0.00 | 19 | 1007.0 |
| 20260502033600 | 27 | 256 | 0.0 | 0.0 | 0.00 | 0.00 | 0.00 | 19 | 1006.9 |
| 20260502033154 | 27 | 256 | 0.0 | 0.0 | 0.00 | 0.00 | 0.00 | 19 | 1006.8 |
| 20260502032646 | 27 | 256 | 0.0 | 0.0 | 0.00 | 0.00 | 0.00 | 19 | 1006.8 |
| 20260502032011 | 27 | 256 | 0.0 | 0.0 | 0.00 | 0.00 | 0.00 | 18 | 1006.7 |
| 20260502031548 | 28 | 256 | 0.0 | 0.0 | 0.00 | 0.00 | 0.00 | 18 | 1006.6 |
| 20260502031004 | 28 | 256 | 0.0 | 0.0 | 0.00 | 0.00 | 0.00 | 18 | 1006.5 |
| 20260502030609 | 28 | 256 | 0.0 | 0.0 | 0.00 | 0.00 | 0.00 | 18 | 1006.7 |
| 20260502030041 | 28 | 256 | 0.0 | 0.0 | 0.00 | 0.00 | 0.00 | 18 | 1006.4 |
| 20260502025509 | 28 | 256 | 0.0 | 0.0 | 0.00 | 0.00 | 0.00 | 18 | 1006.5 |
| 20260502025041 | 28 | 256 | 0.0 | 0.0 | 0.00 | 0.00 | 0.00 | 18 | 1006.4 |
| 20260502024558 | 28 | 256 | 0.0 | 0.0 | 0.00 | 0.00 | 0.00 | 18 | 1006.4 |
| 20260502024053 | 28 | 256 | 0.0 | 0.0 | 0.00 | 0.00 | 0.00 | 18 | 1006.3 |
| 20260502023514 | 29 | 256 | 0.0 | 0.0 | 0.00 | 0.00 | 0.00 | 18 | 1006.1 |
| 20260502023104 | 29 | 256 | 0.0 | 0.0 | 0.00 | 0.00 | 0.00 | 17 | 1006.2 |
| 20260502022507 | 29 | 256 | 0.0 | 0.0 | 0.00 | 0.00 | 0.00 | 17 | 1006.2 |
| 20260502022100 | 30 | 256 | 0.0 | 0.0 | 0.00 | 0.00 | 0.00 | 17 | 1006.0 |
| 20260502021533 | 30 | 256 | 0.0 | 0.0 | 0.00 | 0.00 | 0.00 | 18 | 1006.1 |
| 20260502021111 | 30 | 256 | 0.0 | 0.0 | 0.00 | 0.00 | 0.00 | 18 | 1006.1 |
| 20260502020510 | 30 | 256 | 0.0 | 0.0 | 0.00 | 0.00 | 0.00 | 18 | 1006.0 |
| 20260502020114 | 30 | 256 | 0.0 | 0.0 | 0.00 | 0.00 | 0.00 | 17 | 1005.9 |
| 20260502015610 | 30 | 256 | 0.0 | 0.0 | 0.00 | 0.00 | 0.00 | 18 | 1005.8 |
| 20260502015106 | 30 | 256 | 0.0 | 0.0 | 0.00 | 0.00 | 0.00 | 17 | 1005.9 |
| 20260502014557 | 30 | 256 | 0.0 | 0.0 | 0.00 | 0.00 | 0.00 | 17 | 1005.9 |
| 20260502014130 | 31 | 256 | 0.0 | 0.0 | 0.00 | 0.00 | 0.00 | 17 | 1005.8 |
| 20260502013513 | 31 | 256 | 0.0 | 0.0 | 0.00 | 0.00 | 0.00 | 17 | 1005.9 |
| 20260502013045 | 31 | 256 | 0.0 | 0.0 | 0.00 | 0.00 | 0.00 | 17 | 1005.8 |
| 20260502012543 | 31 | 256 | 0.0 | 0.0 | 0.00 | 0.00 | 0.00 | 17 | 1005.8 |
| 20260502012117 | 31 | 256 | 0.0 | 0.0 | 0.00 | 0.00 | 0.00 | 17 | 1005.8 |
| 20260502011556 | 31 | 257 | 0.0 | 1.6 | 0.00 | 0.00 | 0.00 | 17 | 1005.9 |
| 20260502011053 | 31 | 259 | 0.0 | 1.6 | 0.00 | 0.00 | 0.00 | 17 | 1006.0 |
| 20260502010606 | 31 | 259 | 0.0 | 0.0 | 0.00 | 0.00 | 0.00 | 18 | 1006.0 |
| 20260502010016 | 31 | 258 | 0.0 | 0.0 | 0.00 | 0.00 | 0.00 | 17 | 1006.0 |
| 20260502005545 | 31 | 258 | 0.0 | 0.0 | 0.00 | 0.00 | 0.00 | 17 | 1005.9 |
| 20260502005039 | 31 | 258 | 0.0 | 4.8 | 0.00 | 0.00 | 0.00 | 17 | 1005.9 |
| 20260502004557 | 32 | 305 | 0.0 | 6.4 | 0.00 | 0.00 | 0.00 | 17 | 1006.0 |
| 20260502004049 | 31 | 224 | 0.0 | 6.4 | 0.00 | 0.00 | 0.00 | 17 | 1006.1 |
| 20260502003605 | 31 | 233 | 0.0 | 0.0 | 0.00 | 0.00 | 0.00 | 17 | 1006.0 |
| 20260502003141 | 31 | 234 | 0.0 | 0.0 | 0.00 | 0.00 | 0.00 | 18 | 1006.0 |
| 20260502002557 | 32 | 234 | 0.0 | 0.0 | 0.00 | 0.00 | 0.00 | 18 | 1006.0 |
| 20260502002113 | 32 | 233 | 0.0 | 11.3 | 0.00 | 0.00 | 0.00 | 18 | 1006.0 |
| 20260502001506 | 31 | 233 | 0.0 | 11.3 | 0.00 | 0.00 | 0.00 | 18 | 1006.2 |
| 20260502001121 | 31 | 264 | 0.0 | 4.8 | 0.00 | 0.00 | 0.00 | 20 | 1006.2 |
| 20260502000533 | 31 | 264 | 0.0 | 11.3 | 0.00 | 0.00 | 0.00 | 19 | 1006.1 |
| 20260502000113 | 32 | 266 | 1.6 | 11.3 | 0.00 | 0.00 | 0.00 | 19 | 1006.2 |
| 20260501235557 | 32 | 285 | 0.0 | 9.7 | 0.00 | 0.00 | 0.00 | 19 | 1006.0 |
| 20260501235053 | 31 | 304 | 0.0 | 9.7 | 0.00 | 0.00 | 0.00 | 19 | 1006.2 |
| 20260501234610 | 32 | 307 | 3.2 | 8.0 | 0.00 | 0.00 | 0.00 | 18 | 1006.3 |
| 20260501234011 | 32 | 320 | 0.0 | 9.7 | 0.00 | 0.00 | 0.00 | 19 | 1006.2 |
| 20260501233607 | 32 | 321 | 3.2 | 9.7 | 0.00 | 0.00 | 0.00 | 22 | 1006.2 |
| 20260501233003 | 32 | 245 | 0.0 | 11.3 | 0.00 | 0.00 | 0.00 | 19 | 1006.2 |
| 20260501232612 | 32 | 240 | 1.6 | 11.3 | 0.00 | 0.00 | 0.00 | 19 | 1006.2 |
| 20260501232010 | 32 | 224 | 0.0 | 9.7 | 0.00 | 0.00 | 0.00 | 20 | 1006.4 |
| 20260501231539 | 31 | 214 | 0.0 | 11.3 | 0.00 | 0.00 | 0.00 | 20 | 1006.5 |
| 20260501231116 | 31 | 252 | 3.2 | 11.3 | 0.00 | 0.00 | 0.00 | 20 | 1006.4 |
| 20260501230512 | 31 | 290 | 1.6 | 12.9 | 0.00 | 0.00 | 0.00 | 20 | 1006.4 |
| 20260501230105 | 31 | 278 | 4.8 | 12.9 | 0.00 | 0.00 | 0.00 | 20 | 1006.5 |
| 20260501225549 | 32 | 258 | 1.6 | 12.9 | 0.00 | 0.00 | 0.00 | 20 | 1006.6 |
| 20260501225008 | 32 | 230 | 0.0 | 6.4 | 0.00 | 0.00 | 0.00 | 20 | 1006.6 |
| 20260501224655 | 31 | 243 | 0.0 | 6.4 | 0.00 | 0.00 | 0.00 | 20 | 1006.6 |
| 20260501224111 | 31 | 249 | 0.0 | 14.5 | 0.00 | 0.00 | 0.00 | 20 | 1006.8 |
| 20260501223548 | 31 | 243 | 3.2 | 14.5 | 0.00 | 0.00 | 0.00 | 20 | 1006.8 |
| 20260501223059 | 31 | 234 | 1.6 | 14.5 | 0.00 | 0.00 | 0.00 | 21 | 1006.8 |
| 20260501222555 | 31 | 214 | 4.8 | 14.5 | 0.00 | 0.00 | 0.00 | 20 | 1006.9 |
| 20260501222047 | 31 | 229 | 3.2 | 14.5 | 0.00 | 0.00 | 0.00 | 17 | 1007.0 |
| 20260501221505 | 31 | 264 | 3.2 | 17.7 | 0.00 | 0.00 | 0.00 | 21 | 1007.2 |
| 20260501221144 | 31 | 239 | 1.6 | 17.7 | 0.00 | 0.00 | 0.00 | 21 | 1007.2 |
| 20260501220508 | 31 | 235 | 3.2 | 14.5 | 0.00 | 0.00 | 0.00 | 20 | 1007.2 |
| 20260501220014 | 31 | 283 | 1.6 | 16.1 | 0.00 | 0.00 | 0.00 | 22 | 1007.3 |
| 20260501215606 | 31 | 203 | 4.8 | 17.7 | 0.00 | 0.00 | 0.00 | 22 | 1007.4 |
| 20260501215005 | 31 | 267 | 1.6 | 16.1 | 0.00 | 0.00 | 0.00 | 23 | 1007.5 |
| 20260501214535 | 31 | 283 | 4.8 | 16.1 | 0.00 | 0.00 | 0.00 | 22 | 1007.5 |
| 20260501214110 | 30 | 243 | 3.2 | 16.1 | 0.00 | 0.00 | 0.00 | 23 | 1007.6 |
| 20260501213605 | 31 | 234 | 4.8 | 17.7 | 0.00 | 0.00 | 0.00 | 23 | 1007.7 |
| 20260501213119 | 31 | 307 | 4.8 | 20.9 | 0.00 | 0.00 | 0.00 | 23 | 1007.8 |
| 20260501212557 | 31 | 282 | 4.8 | 19.3 | 0.00 | 0.00 | 0.00 | 23 | 1007.7 |
| 20260501212115 | 31 | 260 | 3.2 | 12.9 | 0.00 | 0.00 | 0.00 | 24 | 1007.7 |
| 20260501211512 | 31 | 333 | 1.6 | 16.1 | 0.00 | 0.00 | 0.00 | 23 | 1007.8 |
| 20260501211103 | 30 | 289 | 0.0 | 16.1 | 0.00 | 0.00 | 0.00 | 24 | 1007.9 |
| 20260501210525 | 31 | 309 | 4.8 | 17.7 | 0.00 | 0.00 | 0.00 | 24 | 1008.0 |
| 20260501210012 | 30 | 224 | 4.8 | 16.1 | 0.00 | 0.00 | 0.00 | 24 | 1008.0 |
| 20260501205537 | 30 | 274 | 8.0 | 16.1 | 0.00 | 0.00 | 0.00 | 22 | 1008.2 |
| 20260501205020 | 31 | 219 | 0.0 | 9.7 | 0.00 | 0.00 | 0.00 | 23 | 1008.2 |
| 20260501204511 | 30 | 289 | 0.0 | 11.3 | 0.00 | 0.00 | 0.00 | 23 | 1008.3 |
| 20260501204045 | 31 | 276 | 1.6 | 11.3 | 0.00 | 0.00 | 0.00 | 23 | 1008.3 |
| 20260501203505 | 31 | 249 | 0.0 | 16.1 | 0.00 | 0.00 | 0.00 | 25 | 1008.4 |
| 20260501203102 | 30 | 219 | 6.4 | 16.1 | 0.00 | 0.00 | 0.00 | 23 | 1008.5 |
| 20260501202628 | 30 | 257 | 0.0 | 11.3 | 0.00 | 0.00 | 0.00 | 24 | 1008.3 |
| 20260501202048 | 31 | 282 | 0.0 | 9.7 | 0.00 | 0.00 | 0.00 | 23 | 1008.4 |
| 20260501201605 | 30 | 320 | 1.6 | 9.7 | 0.00 | 0.00 | 0.00 | 24 | 1008.5 |
| 20260501201139 | 30 | 198 | 0.0 | 16.1 | 0.00 | 0.00 | 0.00 | 25 | 1008.5 |
| 20260501200503 | 30 | 250 | 4.8 | 16.1 | 0.00 | 0.00 | 0.00 | 24 | 1008.5 |
| 20260501200009 | 30 | 219 | 0.0 | 11.3 | 0.00 | 0.00 | 0.00 | 25 | 1008.5 |
| 20260501195505 | 31 | 257 | 1.6 | 9.7 | 0.00 | 0.00 | 0.00 | 25 | 1008.7 |
| 20260501195022 | 29 | 212 | 0.0 | 4.8 | 0.00 | 0.00 | 0.00 | 28 | 1008.7 |
| 20260501194515 | 29 | 212 | 0.0 | 11.3 | 0.00 | 0.00 | 0.00 | 25 | 1008.8 |
| 20260501194042 | 29 | 212 | 3.2 | 11.3 | 0.00 | 0.00 | 0.00 | 26 | 1008.9 |
| 20260501193539 | 29 | 266 | 0.0 | 8.0 | 0.00 | 0.00 | 0.00 | 26 | 1009.0 |
| 20260501193036 | 30 | 267 | 1.6 | 8.0 | 0.00 | 0.00 | 0.00 | 26 | 1009.0 |
| 20260501192630 | 29 | 254 | 0.0 | 0.0 | 0.00 | 0.00 | 0.00 | 27 | 1008.9 |
| 20260501192012 | 29 | 254 | 0.0 | 0.0 | 0.00 | 0.00 | 0.00 | 27 | 1009.0 |
| 20260501191605 | 28 | 254 | 0.0 | 0.0 | 0.00 | 0.00 | 0.00 | 31 | 1009.1 |
| 20260501191104 | 28 | 254 | 0.0 | 1.6 | 0.00 | 0.00 | 0.00 | 29 | 1009.4 |
| 20260501190558 | 29 | 255 | 0.0 | 1.6 | 0.00 | 0.00 | 0.00 | 26 | 1009.4 |